FDB818 OOMS-OMDB

Flight info

Callsign FDB818
Flight time N/A
Altitude 20000
Route ITLAK1N/26R MCT T508 SOLUD P574 IMPED
Aircraft B738/M-SDE2E3FGHIRWXY/LB1

Departure

Time 2026-04-29 12:22
Airport Muscat International Airport (OOMS)

Arrival

Time N/A
Airport Dubai International Airport (OMDB)
Time Latitude Longitude Altitude Speed Heading
2026-04-29 11:55 23.60341 58.28587 44 ft 0 kts 85°
2026-04-29 12:08 23.60341 58.28584 44 ft 2 kts 85°
2026-04-29 12:08 23.60339 58.28566 42 ft 2 kts 85°
2026-04-29 12:08 23.60338 58.28549 44 ft 2 kts 85°
2026-04-29 12:08 23.60336 58.28531 42 ft 2 kts 85°
2026-04-29 12:09 23.60335 58.28513 44 ft 2 kts 85°
2026-04-29 12:09 23.60333 58.28496 44 ft 2 kts 85°
2026-04-29 12:09 23.60332 58.28479 44 ft 2 kts 85°
2026-04-29 12:09 23.60331 58.28461 41 ft 2 kts 76°
2026-04-29 12:10 23.60321 58.28453 39 ft 0 kts 358°
2026-04-29 12:16 23.60338 58.28452 42 ft 5 kts 355°
2026-04-29 12:16 23.60393 58.28447 44 ft 10 kts 355°
2026-04-29 12:16 23.60469 58.28439 44 ft 11 kts 354°
2026-04-29 12:17 23.60543 58.28431 43 ft 11 kts 354°
2026-04-29 12:17 23.60613 58.28444 44 ft 10 kts 34°
2026-04-29 12:17 23.60637 58.28514 43 ft 10 kts 83°
2026-04-29 12:17 23.60644 58.28589 45 ft 10 kts 84°
2026-04-29 12:18 23.60649 58.28660 45 ft 9 kts 86°
2026-04-29 12:18 23.60655 58.28731 44 ft 9 kts 85°
2026-04-29 12:18 23.60653 58.28799 44 ft 9 kts 110°
2026-04-29 12:18 23.60605 58.28840 44 ft 9 kts 149°
2026-04-29 12:19 23.60581 58.28897 44 ft 9 kts 86°
2026-04-29 12:19 23.60585 58.28962 44 ft 8 kts 85°
2026-04-29 12:19 23.60590 58.29027 44 ft 9 kts 85°
2026-04-29 12:19 23.60596 58.29106 44 ft 11 kts 85°
2026-04-29 12:20 23.60602 58.29191 44 ft 11 kts 85°
2026-04-29 12:20 23.60609 58.29273 44 ft 11 kts 85°
2026-04-29 12:20 23.60616 58.29356 44 ft 12 kts 84°
2026-04-29 12:20 23.60624 58.29448 44 ft 13 kts 84°
2026-04-29 12:21 23.60634 58.29565 44 ft 18 kts 85°
2026-04-29 12:21 23.60679 58.29702 43 ft 21 kts 25°
2026-04-29 12:21 23.60837 58.29696 40 ft 25 kts 342°
2026-04-29 12:21 23.60893 58.29522 43 ft 28 kts 265°
2026-04-29 12:22 23.60869 58.29220 44 ft 76 kts 265°
2026-04-29 12:22 23.60798 58.28317 44 ft 159 kts 264°
2026-04-29 12:22 23.60690 58.26890 257 ft 210 kts 266°
2026-04-29 12:22 23.60534 58.25279 984 ft 214 kts 268°
2026-04-29 12:23 23.60447 58.23678 1938 ft 204 kts 280°
2026-04-29 12:23 23.60875 58.22161 2413 ft 219 kts 296°
2026-04-29 12:23 23.61470 58.20575 2839 ft 229 kts 294°
2026-04-29 12:23 23.62037 58.18931 3369 ft 236 kts 292°
2026-04-29 12:24 23.62597 58.17195 3735 ft 252 kts 291°
2026-04-29 12:24 23.63162 58.15339 4286 ft 262 kts 290°
2026-04-29 12:24 23.63712 58.13444 5203 ft 261 kts 288°
2026-04-29 12:24 23.64244 58.11554 6142 ft 262 kts 287°
2026-04-29 12:25 23.64768 58.09649 7355 ft 266 kts 286°
2026-04-29 12:25 23.65315 58.07637 7891 ft 284 kts 286°
2026-04-29 12:25 23.66416 58.03534 9505 ft 273 kts 285°
2026-04-29 12:26 23.66949 58.01532 10244 ft 279 kts 285°
2026-04-29 12:26 23.67494 57.99482 10522 ft 302 kts 285°
2026-04-29 12:26 23.68103 57.97188 10700 ft 326 kts 285°
2026-04-29 12:26 23.68753 57.94742 11008 ft 343 kts 286°
2026-04-29 12:27 23.69646 57.92295 11561 ft 351 kts 296°
2026-04-29 12:27 23.70959 57.90017 12189 ft 358 kts 306°
2026-04-29 12:27 23.72502 57.87866 12859 ft 362 kts 307°
2026-04-29 12:27 23.74092 57.85704 13497 ft 367 kts 308°
2026-04-29 12:28 23.75702 57.83520 14086 ft 371 kts 307°
2026-04-29 12:28 23.77313 57.81325 14865 ft 368 kts 307°
2026-04-29 12:28 23.78912 57.79132 15546 ft 369 kts 307°
2026-04-29 12:28 23.80498 57.76947 16117 ft 373 kts 306°
2026-04-29 12:29 23.82117 57.74709 16700 ft 377 kts 306°
2026-04-29 12:29 23.83747 57.72451 17295 ft 380 kts 306°
2026-04-29 12:29 23.85387 57.70176 17888 ft 383 kts 306°
2026-04-29 12:29 23.87042 57.67879 18400 ft 386 kts 305°
2026-04-29 12:30 23.88709 57.65566 18948 ft 387 kts 305°
2026-04-29 12:30 23.90373 57.63254 19518 ft 388 kts 305°
2026-04-29 12:30 23.92055 57.60918 19709 ft 391 kts 305°
2026-04-29 12:30 23.93754 57.58554 19746 ft 399 kts 305°
2026-04-29 12:31 23.95480 57.56152 19746 ft 402 kts 305°
2026-04-29 12:31 23.97201 57.53761 19754 ft 399 kts 305°
2026-04-29 12:31 23.98911 57.51382 19750 ft 397 kts 305°
2026-04-29 12:31 24.00612 57.49013 19742 ft 396 kts 305°
2026-04-29 12:32 24.02310 57.46643 19751 ft 396 kts 305°
2026-04-29 12:32 24.04009 57.44270 19754 ft 396 kts 305°
2026-04-29 12:32 24.05707 57.41896 19752 ft 396 kts 305°
2026-04-29 12:32 24.07409 57.39516 19750 ft 397 kts 305°
2026-04-29 12:33 24.09111 57.37134 19753 ft 398 kts 305°
2026-04-29 12:33 24.10797 57.34773 19747 ft 398 kts 305°
2026-04-29 12:33 24.12504 57.32382 19750 ft 399 kts 305°
2026-04-29 12:33 24.14215 57.29984 19749 ft 399 kts 305°
2026-04-29 12:34 24.15925 57.27587 19750 ft 400 kts 305°
2026-04-29 12:34 24.17636 57.25188 19761 ft 399 kts 304°
2026-04-29 12:34 24.19346 57.22789 19754 ft 399 kts 304°
2026-04-29 12:34 24.21052 57.20393 19749 ft 398 kts 304°
2026-04-29 12:35 24.22756 57.18000 19749 ft 398 kts 304°
2026-04-29 12:35 24.24455 57.15612 19756 ft 397 kts 304°
2026-04-29 12:35 24.26150 57.13230 19757 ft 397 kts 304°
2026-04-29 12:35 24.27845 57.10845 19751 ft 396 kts 304°
2026-04-29 12:36 24.29540 57.08460 19757 ft 396 kts 304°
2026-04-29 12:36 24.31230 57.06080 19761 ft 396 kts 304°
2026-04-29 12:36 24.32923 57.03695 19759 ft 396 kts 304°
2026-04-29 12:36 24.34611 57.01315 19755 ft 396 kts 304°
2026-04-29 12:37 24.36254 56.98999 19750 ft 396 kts 304°
2026-04-29 12:37 24.37945 56.96613 19748 ft 396 kts 304°
2026-04-29 12:37 24.39640 56.94220 19752 ft 396 kts 304°
2026-04-29 12:37 24.41334 56.91828 19746 ft 397 kts 304°
2026-04-29 12:38 24.43027 56.89436 19741 ft 397 kts 304°
2026-04-29 12:38 24.44700 56.87071 19743 ft 397 kts 304°
2026-04-29 12:38 24.46391 56.84679 19741 ft 397 kts 304°
2026-04-29 12:38 24.48085 56.82281 19734 ft 397 kts 304°
2026-04-29 12:39 24.49779 56.79883 19734 ft 397 kts 304°
2026-04-29 12:39 24.51474 56.77483 19740 ft 397 kts 304°
2026-04-29 12:39 24.53167 56.75084 19735 ft 398 kts 304°
2026-04-29 12:39 24.54862 56.72682 19738 ft 398 kts 304°
2026-04-29 12:40 24.56556 56.70283 19747 ft 398 kts 304°
2026-04-29 12:40 24.58251 56.67881 19747 ft 398 kts 304°
2026-04-29 12:40 24.59946 56.65478 19747 ft 398 kts 304°
2026-04-29 12:40 24.61641 56.63073 19770 ft 398 kts 304°
2026-04-29 12:41 24.63331 56.60674 19776 ft 394 kts 304°
2026-04-29 12:41 24.64973 56.58346 19761 ft 378 kts 304°
2026-04-29 12:41 24.66564 56.56089 19526 ft 370 kts 304°
2026-04-29 12:41 24.68124 56.53870 19264 ft 364 kts 304°
2026-04-29 12:42 24.69665 56.51678 18905 ft 361 kts 304°